Regional Weather Roundup
Issued by NWS

Home | Current Version | Previous Version | Graphics & Text | Print | Product List | Glossary On
Versions: 1 2 3 4 5 6 7 8 9 10 11 12 13 14 15 16 17 18 19 20 21 22 23 24 25 26 27 28 29 30 31 32 33 34 35 36 37 38 39 40 41 42 43 44 45 46 47 48 49 50
000
ASUS43 KFSD 270810
RWRSD

WEATHER ROUNDUP FOR SOUTH DAKOTA
NATIONAL WEATHER SERVICE SIOUX FALLS SD
200 AM CST TUE JAN 27 2015

NOTE: "FAIR" INDICATES FEW OR NO CLOUDS BELOW 12,000 FEET WITH NO
SIGNIFICANT WEATHER AND/OR OBSTRUCTIONS TO VISIBILITY.


SDZ001>005-009-010-012>017-270900-
NORTHWEST AND NORTH CENTRAL SOUTH DAKOTA

CITY           SKY/WX    TMP DP  RH WIND       PRES   REMARKS
BUFFALO          N/A     41  30  65 W7        29.86F
FAITH            N/A     37  29  72 S10       29.93F
MOBRIDGE       PTCLDY    32  29  88 SE10      29.94F WCI  24
$$

SDZ012>016-024>037-041>051-057-063-072>074-270900-
SOUTHWEST AND SOUTH CENTRAL SOUTH DAKOTA

CITY           SKY/WX    TMP DP  RH WIND       PRES   REMARKS
RAPID CTY ARPT CLEAR     42  26  53 W3        29.96F
PIERRE         CLEAR     31  27  85 E6        29.97F WCI  25
CUSTER         CLEAR     50  19  29 W6        30.08F
ELLSWORTH AFB  CLEAR     43  26  51 W7        29.96S
PHILIP         CLEAR     29  26  89 CALM      29.96F
PINE RIDGE     CLEAR     41  28  60 SW8       30.03F
SPEARFISH      FAIR      46  25  42 W7        29.98F
WINNER         FAIR      39  30  70 SE6       30.00S
$$

SDZ004>011-016>023-039-040-270900-
NORTHEAST SOUTH DAKOTA

CITY           SKY/WX    TMP DP  RH WIND       PRES   REMARKS
ABERDEEN       CLEAR     30  27  88 E6        30.01F WCI  24
WATERTOWN      CLEAR     25  24  96 CALM      30.02S
SISSETON         N/A     27  27 100 CALM      30.03S
$$

SDZ017-020-022-023-036>040-048>070-270900-
SOUTHEAST SOUTH DAKOTA

CITY           SKY/WX    TMP DP  RH WIND       PRES   REMARKS
SIOUX FALLS    CLEAR     27  26  96 CALM      30.04F
HURON          CLEAR     28  26  92 S3        30.02F
CHAMBERLAIN    CLEAR     31  28  89 E6        30.02S WCI  25
MITCHELL       CLEAR     30  28  92 CALM      30.05S
YANKTON        CLEAR     30  27  86 CALM      30.07S
$$

ABBREVIATIONS USED IN REMARKS
   TC - TEMPERATURE IN CELSIUS
  WCI - WIND CHILL INDEX
   HX - HEAT INDEX
  VSB - VISIBILITY




USA.gov is the U.S. government's official web portal to all federal, state and local government web resources and services.